This is the latest recevied weather packets stored in our database for station/object LU5DTF-WX. If no packets are shown the sender has not sent any weather packets the latest 10 day(s).
| Time | Temp. | Humidity | Pressure | Rain* | Wind** | Luminosity | Snow |
|---|---|---|---|---|---|---|---|
| 1787769003 | 10.56° C | 85% | 1007.7 hPa | 0 mm | - | - | - |
| 1787768703 | 10.56° C | 85% | 1007.8 hPa | 0 mm | - | - | - |
| 1787768403 | 11.11° C | 85% | 1007.8 hPa | 0 mm | - | - | - |
| 1787768103 | 11.11° C | 85% | 1007.7 hPa | 0 mm | - | - | - |
| 1787767803 | 11.11° C | 84% | 1007.7 hPa | 0 mm | - | - | - |
| 1787767503 | 11.11° C | 82% | 1007.8 hPa | 0 mm | - | - | - |
| 1787767203 | 12.22° C | 79% | 1008 hPa | 0 mm | - | - | - |
| 1787766903 | 12.22° C | 79% | 1007.9 hPa | 0 mm | - | - | - |
| 1787766603 | 12.22° C | 80% | 1007.8 hPa | 0 mm | - | - | - |
| 1787766303 | 12.22° C | 79% | 1007.9 hPa | 0 mm | - | - | - |
| 1787766003 | 12.22° C | 79% | 1008.2 hPa | 0 mm | - | - | - |
| 1787765703 | 12.22° C | 79% | 1008.4 hPa | 0 mm | - | - | - |
| 1787765403 | 11.67° C | 80% | 1008.3 hPa | 0 mm | - | - | - |
| 1787765103 | 12.22° C | 80% | 1008.1 hPa | 0 mm | - | - | - |
| 1787764803 | 12.22° C | 79% | 1008.2 hPa | 0 mm | - | - | - |
| 1787764503 | 12.22° C | 78% | 1008.3 hPa | 0 mm | - | - | - |
| 1787764203 | 13.33° C | 75% | 1008.5 hPa | 0 mm | - | - | - |
| 1787763903 | 13.33° C | 75% | 1008.6 hPa | 0 mm | - | - | - |
| 1787763603 | 13.33° C | 75% | 1008.9 hPa | 0 mm | - | - | - |
| 1787763303 | 13.33° C | 75% | 1008.9 hPa | 0 mm | - | - | - |
| 1787763003 | 13.33° C | 75% | 1009 hPa | 0 mm | - | - | - |
| 1787762703 | 13.33° C | 75% | 1009.2 hPa | 0 mm | - | - | - |
| 1787762403 | 12.78° C | 76% | 1009.2 hPa | 0 mm | - | - | - |
| 1787762103 | 12.78° C | 76% | 1009.5 hPa | 0 mm | - | - | - |
| 1787761803 | 12.78° C | 76% | 1009.5 hPa | 0 mm | - | - | - |
* Rain latest hour (hover to see other rain measurements)
** Current wind speed in m/s (hover to see current wind gust speed)